Covington, KY

7:04 AM EDT on August 18, 2017 (GMT -0400)
Cincinnati-Northern KY International

Weather History for KCVG - July, 2013

Change the Weather History Date:

Sunday, July 14, 2013

  Actual Average Record
Temperature  
Mean Temperature 80 °F 76 °F  
Max Temperature 89 °F 86 °F 106 °F (1936)
Min Temperature 70 °F 66 °F 48 °F (1975)
Degree Days  
Heating Degree Days 0 0  
Month to date heating degree days 0 0  
Since 1 June heating degree days 1 15  
Since 1 July heating degree days 0 0  
Cooling Degree Days 15 11  
Month to date cooling degree days 137 152  
Year to date cooling degree days 515 472  
Since 1 June cooling degree days 376 378  
Growing Degree Days 30 (Base 50)    
Moisture  
Dew Point 70 °F    
Average Humidity 73    
Maximum Humidity 90    
Minimum Humidity 56    
Precipitation  
Precipitation T in 0.12 in 1.54 in (1881)
Month to date precipitation 4.04 1.69  
Year to date precipitation 27.94 24.31  
Snow  
Snow 0.00 in 0.00 in 0.00 in ()
Month to date snowfall 0.0 0.0  
Since 1 June snowfall 0.0 0.0  
Since 1 July snowfall 0.0 0.0  
Snow Depth 0.00 in    
Sea Level Pressure  
Sea Level Pressure 30.16 in    
Wind  
Wind Speed 8 mph (ESE)    
Max Wind Speed 24 mph    
Max Gust Speed 31 mph    
Visibility 10 miles    
Events      
T = Trace of Precipitation, MM = Missing Value Source: NWS Daily Summary

Daily Weather History Graph

Daily Weather History Graph

Search for Another Location

Airport or City:

Trip Planner

Search our weather history database for the weather conditions in past years. The results will help you decide how hot, cold, wet, or windy it might be!

Date:

Astronomy

Jul. 14, 2013 Rise Set
Actual Time 6:24 AM EDT 9:04 PM EDT
Civil Twilight 5:53 AM EDT 9:35 PM EDT
Nautical Twilight 5:14 AM EDT 10:14 PM EDT
Astronomical Twilight 4:30 AM EDT 10:58 PM EDT
Moon 12:37 PM EDT (7/14) No Moon Set
Length of Visible Light 15h 41m
Length of Day
14h 39m
Waxing Crescent, 35% of the Moon is Illuminated
Jul 14
Waxing Crescent
Jul 15
First Quarter
Jul 22
Full
Jul 29
Last Quarter
Aug 6
New

Hourly Weather History & Observations

Time (EDT) Temp. Heat Index Dew Point Humidity Pressure Visibility Wind Dir Wind Speed Gust Speed Precip Events Conditions
12:52 AM 75.0 °F - 66.0 °F 73% 30.12 in 10.0 mi East 10.4 mph - N/A   Clear
1:52 AM 73.9 °F - 66.9 °F 79% 30.11 in 10.0 mi East 10.4 mph - N/A   Clear
2:52 AM 73.0 °F - 66.9 °F 81% 30.11 in 10.0 mi East 10.4 mph - N/A   Clear
3:52 AM 71.1 °F - 66.9 °F 87% 30.12 in 10.0 mi East 6.9 mph - N/A   Clear
4:52 AM 71.1 °F - 66.9 °F 87% 30.12 in 10.0 mi East 4.6 mph - N/A   Clear
5:52 AM 71.1 °F - 66.9 °F 87% 30.13 in 10.0 mi East 5.8 mph - N/A   Clear
6:52 AM 70.0 °F - 66.9 °F 90% 30.16 in 10.0 mi East 5.8 mph - N/A   Clear
7:52 AM 73.9 °F - 68.0 °F 82% 30.16 in 10.0 mi ESE 5.8 mph - N/A   Clear
8:52 AM 77.0 °F - 69.1 °F 76% 30.17 in 10.0 mi SE 10.4 mph - N/A   Partly Cloudy
9:52 AM 80.1 °F 82.9 °F 69.1 °F 69% 30.17 in 10.0 mi SSE 11.5 mph - N/A   Scattered Clouds
10:52 AM 82.0 °F 85.9 °F 70.0 °F 67% 30.17 in 10.0 mi SE 10.4 mph - N/A   Scattered Clouds
11:52 AM 84.0 °F 89.0 °F 71.1 °F 65% 30.17 in 10.0 mi SSE 9.2 mph - N/A   Scattered Clouds
12:52 PM 82.9 °F 87.5 °F 71.1 °F 67% 30.17 in 10.0 mi South 9.2 mph - N/A   Scattered Clouds
1:52 PM 86.0 °F 92.2 °F 72.0 °F 63% 30.17 in 10.0 mi SE 8.1 mph - N/A   Scattered Clouds
2:52 PM 88.0 °F 93.8 °F 71.1 °F 57% 30.17 in 10.0 mi SSE 8.1 mph - N/A   Scattered Clouds
3:52 PM 88.0 °F 95.6 °F 73.0 °F 61% 30.16 in 10.0 mi Variable 3.5 mph - N/A   Scattered Clouds
4:52 PM 87.1 °F 93.6 °F 72.0 °F 61% 30.15 in 10.0 mi ESE 10.4 mph - N/A   Mostly Cloudy
5:52 PM 89.1 °F 95.0 °F 71.1 °F 55% 30.15 in 10.0 mi ESE 6.9 mph - N/A   Scattered Clouds
6:52 PM 87.1 °F 92.8 °F 71.1 °F 59% 30.14 in 10.0 mi ESE 6.9 mph - N/A   Scattered Clouds
7:52 PM 84.0 °F 90.2 °F 73.0 °F 69% 30.16 in 10.0 mi SSE 21.9 mph 31.1 mph N/A   Mostly Cloudy
8:52 PM 79.0 °F - 73.9 °F 84% 30.17 in 10.0 mi SE 6.9 mph - 0.00 in   Mostly Cloudy
9:52 PM 78.1 °F - 73.9 °F 87% 30.19 in 10.0 mi East 6.9 mph - N/A   Mostly Cloudy
10:52 PM 78.1 °F - 73.9 °F 87% 30.21 in 10.0 mi East 6.9 mph - N/A   Scattered Clouds
11:52 PM 77.0 °F - 73.0 °F 88% 30.21 in 10.0 mi ESE 5.8 mph - N/A   Partly Cloudy